Погода в Весёлом

Россия / Иркутская область     55°56′05″N   99°35′20″E
темп.,
°C
ветер,
м/с
пор.,
м/с
влажн.,
%
обл.,
%
осадки,
мм/ч
давл.,
гПа
погр.,
м
3 августа, вт
вт323:00+13зюз118398 0.0 100810
02:00+12зюз119290 0.0 100810
05:00+11ю11955 0.0 100810
08:00+15ююз118030 0.0 1009121
11:00+23ююв115381 0.0 1008715
14:00+27юз123924 0.0 10071720
17:00+27зсз123974 0.0 10072065
20:00+23всв116363 0.0 100711
4 августа, ср
ср423:00+17ююв017361 0.0 100811
02:00+15вюв11795 0.0 100811
05:00+14вюв11856 0.0 100911
08:00+18вюв01694 0.0 1009126
11:00+25ю11485 0.0 1008624
14:00+29з11380 0.0 10061818
17:00+29ссз223624 0.0 10052354
20:00+22в2461100 0.1 100590
5 августа, чт
чт523:00+18всв118252 1.3 100612
02:00+16в118960 1.3 100511
05:00+15вюв11935 0.0 100511
08:00+18всв01823 0.0 1005100
11:00+25св014970 0.0 1003681
14:00+28з223985 0.0 10022332
17:00+21з5979100 0.6 1003459
20:00+19сз249097 1.4 1002125
6 августа, пт
пт623:00+16з119454 0.6 100211
02:00+15ссз009674 1.1 100211
05:00+14с1195100 0.2 100211
08:00+15с1189100 0.2 100290
11:00+22ссв125694 0.0 1002668
14:00+26сз124293 0.0 10002218
17:00+22ссз136396 0.0 1001245
20:00+19сз228281 0.8 100130
7 августа, сб
сб723:00+16сз1194100 0.4 100215
02:00+16сз119592 0.7 100327
05:00+15сз119753 0.8 100311
08:00+16зюз129539 1.8 1004173
11:00+18з228387 0.0 1005568
14:00+20з337971 0.9 1006704
17:00+22з226723 0.6 1006940
20:00+19з25887 1.5 1007143